707  
ASUS41 KPHI 180213  
RWRPHI  
 
REGIONAL WEATHER ROUNDUP  
NATIONAL WEATHER SERVICE MOUNT HOLLY NJ  
900 PM EST SAT FEB 17 2018  
 
NOTE: "FAIR" INDICATES FEW OR NO CLOUDS BELOW 12,000 FEET WITH NO  
SIGNIFICANT WEATHER AND/OR S TO VISIBILITY
.  
 
* = STATION DOES NOT REPORT PRECIPITATION (E.G. RAIN, SNOW, ETC.)  
OR FOG.
 
 
NJZ015>026-180300-  
SOUTHERN NEW JERSEY  
 
CITY SKY/WX TMP DP RH WIND PRES REMARKS
 
POMONA RAIN 34 34 100 CALM 30.09F FOG  
WILDWOOD* LGT SNOW 35 34 96 NE5 30.09F FOG WCI 31  
MILLVILLE RAIN 33 32 96 NE3 30.09F FOG  
WRIGHTSTOWN LGT RAIN 32 32 98 CALM 30.06F  
MOUNT HOLLY MIX PCPN 32 32 100 CALM 30.10F FOG  
TRENTON SNOW 33 32 96 E7 30.08F VSB 1/2 WCI 27  
 

 
NJZ001>014-180300-  
NORTHERN NEW JERSEY  
 
CITY SKY/WX TMP DP RH WIND PRES REMARKS
 
SUSSEX LGT SNOW 31 30 96 CALM 30.06F VSB 1  
ANDOVER* N/A 31 29 92 CALM 30.05F  
MORRISTOWN HVY SNOW 32 32 100 CALM 30.10 VSB 1/4  
NEWARK LGT SNOW 33 31 92 NE7 30.11F VSB 3/4 WCI 27  
TETERBORO SNOW 33 32 96 E3 30.11F VSB 1/2  
CALDWELL LGT SNOW 32 32 100 E7 30.09F VSB 1 WCI 26  
SOMERVILLE SNOW 32 32 100 SE3 30.07F VSB 1/2  
ALLAIRE* LGT SNOW 32 30 93 E5 30.10F FOG WCI 27  
TOMS RIVER* LGT SNOW 32 32 100 NE3 30.10F FOG  
 

 
PAZ043-044-047-054-055-060>062-066>071-180300-  
EASTERN PENNSYLVANIA  
 
CITY SKY/WX TMP DP RH WIND PRES REMARKS
 
PHILADELPHIA LGT SNOW 32 31 96 E7 30.08F FOG WCI 26  
NORTH PHILA LGT SNOW 34 32 92 E7 30.08F VSB 1 WCI 28  
BLUE BELL* CLOUDY 32 32 100 E3 30.06F  
DOYLESTOWN LGT SNOW 32 31 96 VRB3 30.04F FOG  
QUAKERTOWN* CLOUDY 32 32 100 CALM 30.04F FOG  
PERKASIE* LGT SNOW 32 32 100 E3 30.05F  
POTTSTOWN LGT SNOW 31 31 100 E3 30.06F VSB 1  
LANCASTER CLOUDY 31 31 100 CALM 30.10R FOG  
COATESVILLE LGT SNOW 32 N/A N/A CALM 30.08F  
READING LGT SNOW 32 32 100 SW5 30.08S WCI 27  
ALLENTOWN LGT SNOW 34 31 88 CALM 30.06F FOG  
MOUNT POCONO NOT AVBL  
HAZLETON FLURRIES 30 28 93 S5 30.03R WCI 25  
LEHIGHTON LGT SNOW 32 32 100 CALM 30.07F  
WILKES BARRE LGT SNOW 30 29 96 N5 30.04S VSB 3/4 WCI 25  
 

 
DEZALL-MDZ008-012-015-019-020-180300-  
DELAWARE AND EASTERN MARYLAND  
 
CITY SKY/WX TMP DP RH WIND PRES REMARKS
 
WILMINGTON LGT SNOW 32 32 100 SE6 30.07F FOG WCI 26  
DOVER LGT RAIN 33 33 98 E5 30.07F WCI 29  
GEORGETOWN LGT RAIN 37 32 82 NE7 30.07F WCI 32  
EASTON DRIZZLE 34 32 93 CALM 30.13F  
ABERDEEN CLOUDY N/A N/A N/A CALM 30.09 HAZE  
PATUXENT MIX PCPN 35 35 100 CALM 30.09  
OCEAN CITY RAIN 38 37 97 N13 30.08F WCI 30  
WALLOPS ISLAND LGT RAIN 38 37 97 NW10 30.08F WCI 31  
CAMBRIDGE N/A 36 34 93 CALM 30.08F  
SALISBURY LGT RAIN 36 36 100 N5 30.08F WCI 32  
 

 
PAZ001-021-NYZ056-072-MDZ011-DCZ001-180300-  
OTHER NEARBY LOCATIONS  
 
CITY SKY/WX TMP DP RH WIND PRES REMARKS
 
HARRISBURG CLOUDY 32 29 88 SE5 30.09R WCI 27  
STATE COLLEGE SNOW 28 28 100 CALM 30.02S VSB 1/2  
WILLIAMSPORT LGT SNOW 31 29 92 CALM 30.06R FOG  
BINGHAMTON LGT SNOW 26 24 92 S7 29.97F FOG WCI 18  
NEW YORK CITY LGT SNOW 33 32 96 VRB3 30.13F VSB 3/4  
BALTIMORE CLOUDY 33 33 100 SW3 30.07F FOG  
WASHINGTON DC CLOUDY 35 33 92 S6 30.10F WCI 30  
 

 
 
 
CLICK HERE TO GO TO PREVIOUS BULLETINS.

The Nexlab PA Page
The Nexlab NJ Page
The Nexlab DE Page
The Nexlab MD Page Main Text Page